• In Hungary
  • List of Countries
  • For 7 days
  • Water Temperature
  • Satellite Maps
  • Weather Map
  • News
  • Weather Widgets
  • user-avatar
    Login

    Hourly Weather Dyubek

    Today, 26 September, Wednesday

    Time Temperature Precipitation Wind Pressure Humidity
    00:00 +21°C° 0 mm 2 mps 722 mmHg 77%
    01:00 +21°C° 0 mm 2 mps 722 mmHg 79%
    02:00 +20°C° 0 mm 2 mps 722 mmHg 81%
    03:00 +20°C° 0 mm 2 mps 722 mmHg 83%
    04:00 +20°C° 0.1 mm 2 mps 723 mmHg 85%
    05:00 +20°C° 0.1 mm 2 mps 723 mmHg 87%
    06:00 +20°C° 0.1 mm 2 mps 723 mmHg 90%
    07:00 +21°C° 0.1 mm 3 mps 724 mmHg 84%
    08:00 +22°C° 0.1 mm 3 mps 724 mmHg 78%
    09:00 +23°C° 0.1 mm 4 mps 724 mmHg 73%
    10:00 +23°C° 0.1 mm 5 mps 724 mmHg 73%
    11:00 +23°C° 0.1 mm 5 mps 725 mmHg 74%
    12:00 +23°C° 0.1 mm 6 mps 725 mmHg 74%
    13:00 +22°C° 0.2 mm 6 mps 725 mmHg 76%
    14:00 +21°C° 0.2 mm 7 mps 725 mmHg 79%
    15:00 +20°C° 0.2 mm 7 mps 725 mmHg 81%
    16:00 +19°C° 0.1 mm 6 mps 726 mmHg 84%
    17:00 +17°C° 0.1 mm 6 mps 726 mmHg 87%
    18:00 +17°C° 0.1 mm 6 mps 727 mmHg 90%
    19:00 +16°C° 0.1 mm 6 mps 727 mmHg 90%
    20:00 +16°C° 0.1 mm 5 mps 728 mmHg 91%
    21:00 +15°C° 0.1 mm 5 mps 728 mmHg 91%
    22:00 +15°C° 0.1 mm 4 mps 728 mmHg 91%
    23:00 +15°C° 0.1 mm 4 mps 728 mmHg 92%

    Tomorrow, 27 September, Thursday

    Time Temperature Precipitation Wind Pressure Humidity
    00:00 +14°C° 0.1 mm 4 mps 729 mmHg 92%
    01:00 +14°C° 0 mm 4 mps 729 mmHg 92%
    02:00 +14°C° 0 mm 3 mps 729 mmHg 92%
    03:00 +14°C° 0 mm 3 mps 729 mmHg 92%
    04:00 +14°C° 0 mm 3 mps 729 mmHg 92%
    05:00 +14°C° 0 mm 3 mps 729 mmHg 91%
    06:00 +14°C° 0 mm 3 mps 729 mmHg 91%
    07:00 +15°C° 0 mm 4 mps 729 mmHg 86%
    08:00 +17°C° 0 mm 4 mps 730 mmHg 81%
    09:00 +17°C° 0 mm 4 mps 730 mmHg 76%
    10:00 +18°C° 0 mm 4 mps 730 mmHg 75%
    11:00 +18°C° 0 mm 4 mps 730 mmHg 73%
    12:00 +19°C° 0 mm 4 mps 730 mmHg 71%
    13:00 +18°C° 0 mm 4 mps 729 mmHg 72%
    14:00 +18°C° 0 mm 3 mps 729 mmHg 73%
    15:00 +18°C° 0 mm 3 mps 729 mmHg 74%
    16:00 +17°C° 0 mm 2 mps 729 mmHg 79%
    17:00 +16°C° 0 mm 2 mps 729 mmHg 84%
    18:00 +16°C° 0 mm 1 mps 729 mmHg 89%
    19:00 +15°C° 0 mm 1 mps 729 mmHg 89%
    20:00 +15°C° 0 mm 1 mps 729 mmHg 89%
    21:00 +15°C° 0 mm 1 mps 729 mmHg 88%
    22:00 +15°C° 0 mm 1 mps 729 mmHg 87%
    23:00 +15°C° 0 mm 1 mps 729 mmHg 86%

    Day after tomorrow, 28 September, Friday

    Time Temperature Precipitation Wind Pressure Humidity
    00:00 +15°C° 0 mm 1 mps 729 mmHg 84%
    01:00 +15°C° 0 mm 1 mps 729 mmHg 84%
    02:00 +15°C° 0 mm 1 mps 729 mmHg 84%
    03:00 +14°C° 0 mm 1 mps 729 mmHg 83%
    04:00 +14°C° 0 mm 1 mps 729 mmHg 82%
    05:00 +14°C° 0 mm 1 mps 729 mmHg 81%
    06:00 +14°C° 0 mm 1 mps 729 mmHg 79%
    07:00 +18°C° 0 mm 1 mps 729 mmHg 73%
    08:00 +19°C° 0 mm 2 mps 729 mmHg 67%
    09:00 +21°C° 0 mm 2 mps 730 mmHg 61%
    10:00 +21°C° 0 mm 3 mps 729 mmHg 60%
    11:00 +22°C° 0 mm 3 mps 729 mmHg 59%
    12:00 +23°C° 0 mm 4 mps 729 mmHg 58%
    13:00 +23°C° 0 mm 4 mps 728 mmHg 61%
    14:00 +22°C° 0 mm 4 mps 728 mmHg 64%
    15:00 +22°C° 0 mm 4 mps 728 mmHg 67%
    16:00 +21°C° 0 mm 4 mps 727 mmHg 74%
    17:00 +19°C° 0 mm 3 mps 727 mmHg 81%
    18:00 +18°C° 0 mm 3 mps 727 mmHg 88%
    19:00 +18°C° 0 mm 3 mps 727 mmHg 85%
    20:00 +17°C° 0 mm 3 mps 727 mmHg 82%
    21:00 +17°C° 0 mm 3 mps 727 mmHg 79%
    22:00 +17°C° 0 mm 3 mps 726 mmHg 75%
    23:00 +17°C° 0 mm 2 mps 726 mmHg 72%

    29 September, Saturday

    Time Temperature Precipitation Wind Pressure Humidity
    00:00 +18°C° 0 mm 2 mps 725 mmHg 69%
    01:00 +17°C° 0 mm 2 mps 725 mmHg 68%
    02:00 +17°C° 0 mm 2 mps 725 mmHg 66%
    03:00 +17°C° 0 mm 2 mps 725 mmHg 65%
    04:00 +17°C° 0 mm 2 mps 725 mmHg 63%
    05:00 +17°C° 0 mm 2 mps 724 mmHg 60%
    06:00 +18°C° 0 mm 1 mps 724 mmHg 58%
    07:00 +20°C° 0 mm 1 mps 724 mmHg 53%
    08:00 +23°C° 0 mm 1 mps 724 mmHg 49%
    09:00 +25°C° 0 mm 1 mps 724 mmHg 44%
    10:00 +26°C° 0 mm 2 mps 724 mmHg 45%
    11:00 +26°C° 0 mm 2 mps 724 mmHg 45%
    12:00 +27°C° 0 mm 2 mps 724 mmHg 45%
    13:00 +27°C° 0 mm 2 mps 723 mmHg 47%
    14:00 +27°C° 0 mm 2 mps 723 mmHg 50%
    15:00 +26°C° 0 mm 2 mps 723 mmHg 52%
    16:00 +24°C° 0 mm 2 mps 723 mmHg 60%
    17:00 +22°C° 0 mm 1 mps 723 mmHg 68%
    18:00 +19°C° 0 mm 0 mps 723 mmHg 77%
    19:00 +18°C° 0 mm 0 mps 723 mmHg 75%
    20:00 +20°C° 0 mm 1 mps 724 mmHg 73%
    21:00 +20°C° 0 mm 1 mps 724 mmHg 71%
    22:00 +20°C° 0 mm 1 mps 724 mmHg 68%
    23:00 +20°C° 0 mm 1 mps 723 mmHg 65%

    30 September, Sunday

    Time Temperature Precipitation Wind Pressure Humidity
    00:00 +20°C° 0 mm 1 mps 723 mmHg 62%
    01:00 +20°C° 0 mm 1 mps 723 mmHg 59%
    02:00 +20°C° 0 mm 1 mps 723 mmHg 56%
    03:00 +20°C° 0 mm 1 mps 723 mmHg 53%
    04:00 +20°C° 0 mm 1 mps 723 mmHg 51%
    05:00 +20°C° 0 mm 1 mps 723 mmHg 50%
    06:00 +20°C° 0 mm 1 mps 723 mmHg 48%
    07:00 +22°C° 0 mm 1 mps 724 mmHg 47%
    08:00 +24°C° 0 mm 1 mps 724 mmHg 45%
    09:00 +26°C° 0 mm 1 mps 724 mmHg 43%
    10:00 +26°C° 0 mm 2 mps 724 mmHg 44%
    11:00 +27°C° 0 mm 2 mps 724 mmHg 45%
    12:00 +27°C° 0 mm 2 mps 724 mmHg 46%
    13:00 +27°C° 0.1 mm 3 mps 723 mmHg 49%
    14:00 +27°C° 0.1 mm 3 mps 723 mmHg 53%
    15:00 +26°C° 0.1 mm 3 mps 723 mmHg 56%
    16:00 +24°C° 0.1 mm 2 mps 723 mmHg 65%
    17:00 +22°C° 0.1 mm 1 mps 724 mmHg 74%
    18:00 +21°C° 0.1 mm 1 mps 724 mmHg 83%
    19:00 +21°C° 0 mm 1 mps 724 mmHg 82%
    20:00 +20°C° 0 mm 1 mps 724 mmHg 81%
    21:00 +20°C° 0 mm 1 mps 725 mmHg 79%
    22:00 +20°C° 0 mm 1 mps 725 mmHg 77%
    23:00 +20°C° 0 mm 1 mps 724 mmHg 76%

    1 October, Monday

    Time Temperature Precipitation Wind Pressure Humidity
    00:00 +19°C° 0 mm 2 mps 724 mmHg 74%
    01:00 +20°C° 0 mm 1 mps 724 mmHg 72%
    02:00 +19°C° 0 mm 1 mps 724 mmHg 71%
    03:00 +19°C° 0 mm 1 mps 724 mmHg 69%
    04:00 +19°C° 0 mm 1 mps 724 mmHg 67%
    05:00 +19°C° 0 mm 1 mps 724 mmHg 66%
    06:00 +18°C° 0 mm 2 mps 724 mmHg 64%
    07:00 +20°C° 0 mm 2 mps 725 mmHg 60%
    08:00 +23°C° 0 mm 2 mps 725 mmHg 57%
    09:00 +25°C° 0 mm 2 mps 725 mmHg 54%
    10:00 +25°C° 0 mm 2 mps 725 mmHg 55%
    11:00 +26°C° 0 mm 3 mps 725 mmHg 56%
    12:00 +26°C° 0 mm 3 mps 725 mmHg 56%
    13:00 +26°C° 0.1 mm 3 mps 725 mmHg 60%
    14:00 +25°C° 0.1 mm 2 mps 724 mmHg 64%
    15:00 +25°C° 0.1 mm 2 mps 724 mmHg 68%
    16:00 +23°C° 0.1 mm 2 mps 724 mmHg 74%
    17:00 +21°C° 0.1 mm 2 mps 725 mmHg 81%
    18:00 +21°C° 0.1 mm 1 mps 725 mmHg 87%
    19:00 +20°C° 0 mm 1 mps 725 mmHg 86%
    20:00 +20°C° 0 mm 1 mps 725 mmHg 85%
    21:00 +20°C° 0 mm 1 mps 725 mmHg 84%
    22:00 +20°C° 0 mm 1 mps 725 mmHg 81%
    23:00 +19°C° 0 mm 1 mps 725 mmHg 79%
    Show more